Weather Roundup
Issued by NWS

Home | Current Version | Previous Version | Graphics & Text | Print | Product List | Glossary Off
Versions: 1 2 3 4 5 6 7 8 9 10 11 12 13 14 15 16 17 18 19 20 21 22 23 24 25 26 27 28 29 30 31 32 33 34 35 36 37 38 39 40 41 42 43 44 45 46 47 48 49 50

000
NZUS93 KARX 310210
HRRWXR

CURRENT HOURLY OBSERVATIONS ACROSS
MUCH OF THE UPPER MISSISSIPPI VALLEY
NATIONAL WEATHER SERVICE LA CROSSE WI
900 PM CDT WED JUL 30 2014


...SOUTHEAST MINNESOTA...


CITY           SKY/WX    TMP DP  RH WIND       PRES   REMARKS
ROCHESTER      CLEAR     65  59  81 W7        30.06S
ROCHESTER/MAYO FAIR      71  55  57 W8        30.05S
WINONA         CLEAR     73  61  64 CALM      30.02S
AUSTIN         CLEAR     72  57  60 W3        30.07R
ALBERT LEA     CLEAR     70  57  64 CALM      30.07S
DODGE CENTER   CLEAR     70  59  68 W6        30.06S
PRESTON        CLEAR     67  63  85 W6        30.06S
OWATONNA       CLEAR     66  57  72 SW3       30.07R
FARIBAULT      CLEAR     72  55  56 W5        30.06S
$$

...ELSEWHERE IN MINNESOTA...


CITY           SKY/WX    TMP DP  RH WIND       PRES   REMARKS
MINNEAPOLIS    CLEAR     75  56  51 W6        30.03S
INTNL FALLS    MOCLDY    68  59  73 W3        29.98S
DULUTH         CLEAR     69  56  62 W7        29.98S
RED WING       CLEAR     72  57  60 CALM      30.01S
REDWOOD FALLS  CLEAR     72  56  57 W3        30.06F
MANKATO        CLEAR     70  55  60 W5        30.06S
WORTHINGTON    CLEAR     70  54  56 CALM      30.11S
FAIRMONT       CLEAR     66  52  59 NW3       30.08F
$$

...SOUTHWEST WISCONSIN...


CITY           SKY/WX    TMP DP  RH WIND       PRES   REMARKS
LA CROSSE      MOCLDY    72  63  73 SW6       30.01S
PRAIRIE DU CHI CLEAR     68  61  78 CALM      30.03S
BOSCOBEL       CLEAR     65  61  87 CALM      30.03S
LONE ROCK      CLEAR     67  59  75 W3        30.03R
PLATTEVILLE    CLEAR     69  56  63 NW3       30.06R
FORT MC COY    MOCLDY    66  60  81 CALM      30.03R
CAMP DOUGLAS   MOCLDY    63  63 100 NE1       30.02R
VIROQUA        FAIR      66  60  81 SW5       30.05S
WIS DELLS      CLEAR     65  52  60 CALM      30.03R
$$

...ELSEWHERE IN WISCONSIN...


CITY           SKY/WX    TMP DP  RH WIND       PRES   REMARKS
MILWAUKEE      PTCLDY    63  51  65 S6        30.01R
MADISON        PTCLDY    66  53  63 W3        30.02R
GREEN BAY      MOCLDY    65  56  72 W6        29.98R
EAU CLAIRE     PTCLDY    64  63  96 CALM      30.01R
BLACK RVR FLS  CLOUDY    69  61  76 CALM      30.01S
MEDFORD        CLOUDY    64  60  88 W7        30.02R
WAUSAU         LGT RAIN  66  58  75 W8        29.99R
WIS RAPIDS     PTCLDY    66  56  70 W6        30.01S
MARSHFIELD     MOCLDY    64  59  83 W6        30.01R
RICE LAKE      CLEAR     64  61  89 CALM      30.02S
$$

...NORTHEAST IOWA...


CITY           SKY/WX    TMP DP  RH WIND       PRES   REMARKS
WATERLOO       CLEAR     71  60  68 W5        30.05R
DUBUQUE        CLEAR     64  59  83 NW3       30.06R
DECORAH        CLEAR     68  61  77 CALM      30.04S
MASON CITY     CLEAR     66  60  81 W6        30.09S
CHARLES CITY   PTCLDY    68  63  83 W5        30.07S
OELWEIN        MOCLDY    70  61  73 W5        30.07R
$$

...ELSEWHERE IN IOWA...


CITY           SKY/WX    TMP DP  RH WIND       PRES   REMARKS
DES MOINES     PTCLDY    74  55  51 NW3       30.08R
IOWA CITY      CLEAR     69  62  78 W5        30.06R
FORT DODGE     CLEAR     64  61  88 CALM      30.09F
MARSHALLTOWN   CLEAR     68  61  78 W3        30.07R
CEDAR RAPIDS   CLEAR     67  63  87 SW5       30.05R
$$

...NORTHERN ILLINOIS...


CITY           SKY/WX    TMP DP  RH WIND       PRES   REMARKS
CHICAGO-OHARE  PTCLDY    69  54  58 NE6       30.02R
DUPAGE         CLEAR     68  59  73 E6        30.01R
CHICAGO-MIDWAY PTCLDY    69  59  70 E6        30.02R
MOLINE         CLEAR     68  59  73 W3        30.04R
ROCKFORD       PTCLDY    69  54  58 NW5       30.03R
STERLING       CLEAR     66  55  68 NW3       30.04R
PEORIA         MOCLDY    74  59  59 SW5       30.05R
$$

NOTE: "FAIR" INDICATES FEW OR NO CLOUDS BELOW 12,000 FEET WITH NO
SIGNIFICANT WEATHER AND/OR OBSTRUCTIONS TO VISIBILITY. WIND
SPEEDS ARE IN MILES-PER-HOUR.



USA.gov is the U.S. government's official web portal to all federal, state and local government web resources and services.